{"data":{"norad_id":54642,"intl_designator":"2022-166A","name":"ONEWEB-0527","alt_names":[],"object_type":"PAYLOAD","status":"ACTIVE","operator":null,"country":"UK","launch_date":"2022-12-08","launch_site_code":"AFETR","launch_vehicle":null,"mission":null,"orbit_class":"UNKNOWN","rcs_meters":null,"size_class":null,"mass_kg":null,"dimensions":null,"purposes":["comms"],"wikipedia_slug":null,"has_3d_model":false,"image_url":null,"decayed_at":null,"tle_current":{"epoch":"2026-09-20T04:12:55.200096Z","epoch_age_seconds":53820,"freshness":"FRESH","line1":"1 54642U 22166A   26263.17563889  .00000099  00000+0  20811-3 0  9996","line2":"2 54642  87.9277 225.0876 0002054  78.3138 281.8226 13.21826716184081","mean_motion":13.21826716,"eccentricity":0.0002054,"inclination_deg":87.9277,"raan_deg":225.0876,"arg_perigee_deg":78.3138,"mean_anomaly_deg":281.8226,"bstar":0.00020811,"rev_number":18408,"period_min":108.94014945905,"perigee_km":1176.1986604903,"apogee_km":1179.3026191327,"semimajor_km":7555.8876398115,"source":"CELESTRAK","updated_at":"2026-09-20T09:00:44.722835Z"}}}